Location: Newark
(7.0858°N, 171.3717°E)
Time: 04:11:26
(UTC+00:00)

Vanguard 2 - Pass Details

Date: 03 December 2020
Orbit: 553 x 2937 km, 32.9° (Epoch: 26 January)

Event Time Altitude Azimuth Distance (km) Brightness Sun altitude
Rises 16:54:28 0° 230° (SW) 6,762 12.1 -23.5°
Reaches altitude 10° 16:59:13 10° 228° (SW) 5,640 11.7 -22.4°
Maximum altitude 17:15:48 74° 146° (SE) 2,263 9.9 -18.6°
Drops below altitude 10° 17:26:19 10° 62° (ENE) 3,767 11.6 -16.1°
Sets 17:28:50 0° 61° (ENE) 4,483 12.0 -15.5°
